CAPE
986 910 813 848 830 777 752 800 793 717 746 628 689 690 730 704 725 759 854 906 851 844 868 904 918 886 810 730 787 858 825 828 718 650 767 680 508 502 483 519 631 574 520 401 279 128 0 26 80 199 269 383 465 411 286 374 406 341 418 480 458 496 546
737 694 666 658 708 722 708 677 624 596 636 556 538 598 588 650 649 711 916 988 1011 987 945 904 808 813 844 806 753 724 746 737 640 586 506 529 399 432 450 369 406 488 497 424 354 288 0 43 4 81 123 313 433 471 399 288 166 179 150 180 174 166 193
630 580 657 700 677 604 589 604 508 452 475 478 502 584 605 653 654 786 881 948 1000 1028 907 837 815 813 815 826 782 686 586 564 583 540 510 492 378 338 369 418 349 458 329 339 336 271 188 85 36 9 122 181 121 133 350 309 192 234 243 219 181 141 155
563 541 554 544 466 413 471 527 534 490 400 436 469 532 555 512 529 584 685 896 978 926 822 779 798 818 806 712 678 620 510 459 440 391 442 507 502 512 445 437 430 425 429 304 240 220 193 155 41 9 65 238 246 278 272 399 401 321 284 194 195 159 146
451 364 399 235 37 353 446 395 212 219 322 339 358 369 352 204 206 213 417 628 766 779 761 725 734 712 698 642 645 554 412 387 373 360 335 359 321 368 559 497 439 470 536 314 269 284 299 84 108 82 0 157 250 251 260 302 389 408 332 236 136 179 150
78 268 329 0 0 0 2 1 1 0 13 234 14 0 27 67 94 138 234 451 514 556 630 691 685 631 617 610 578 509 434 362 330 318 321 316 250 345 445 429 418 414 422 441 340 278 254 150 126 3 2 85 141 198 256 222 299 345 368 318 256 225 179
0 0 0 0 0 0 0 0 1 2 2 2 1 2 2 14 39 57 191 264 289 316 356 442 468 459 466 494 500 455 383 329 311 327 312 277 247 265 259 234 330 394 450 430 367 382 301 158 37 22 4 91 108 121 156 225 260 315 307 372 341 246 181
0 1 6 6 1 0 0 0 0 0 0 0 1 1 2 4 2 4 6 7 8 8 8 30 98 184 277 326 355 355 354 341 327 348 347 346 333 228 223 230 238 356 402 370 248 316 275 145 154 0 14 32 98 160 171 246 275 233 290 310 278 242 134
9 6 9 9 2 1 0 0 0 0 0 0 1 0 3 0 0 1 3 4 3 4 4 4 4 26 66 115 169 209 237 231 229 221 182 180 203 216 272 362 254 172 329 344 346 404 333 244 157 138 120 78 17 28 73 118 204 258 252 295 317 364 258
9 6 7 4 1 1 1 0 0 0 0 0 0 4 0 0 1 3 0 0 0 0 0 2 2 4 31 72 116 153 157 148 140 137 145 224 224 233 239 288 312 291 320 314 353 402 273 196 170 201 149 143 41 38 48 65 89 183 202 256 339 357 336
7 6 5 1 0 0 1 0 0 0 0 0 1 3 2 4 2 0 0 0 0 0 0 0 3 5 26 24 64 65 76 109 147 165 197 207 166 114 180 141 93 160 130 176 357 347 388 295 220 184 162 155 142 78 15 33 55 100 138 218 286 364 299
2 7 4 1 1 0 0 0 2 2 4 7 4 4 6 2 2 2 1 0 0 1 5 0 6 48 45 52 33 32 93 137 162 201 199 201 206 198 166 110 98 76 89 334 432 425 415 323 283 163 200 155 19 27 29 39 26 45 111 200 303 310 327
0 4 2 0 0 0 0 1 2 3 2 5 7 6 5 1 3 5 1 0 2 4 4 0 0 3 29 7 6 22 48 76 200 208 232 233 220 209 166 155 122 131 171 295 432 390 377 282 230 206 240 207 60 12 100 51 0 24 70 144 252 387 365
0 0 0 1 0 0 0 0 0 1 6 6 7 6 7 5 6 4 1 0 1 1 2 8 0 1 3 1 13 3 3 3 11 171 186 225 221 216 178 124 78 80 166 255 363 455 394 315 300 274 264 228 212 184 203 62 45 14 51 56 174 352 380
0 0 0 0 0 0 0 0 0 0 2 3 4 6 5 5 4 4 3 2 1 0 0 0 0 0 0 0 1 7 4 1 2 4 149 124 173 230 45 133 191 188 296 320 344 413 477 397 389 359 277 367 309 289 239 146 58 76 138 75 68 256 396
0 0 0 0 0 0 0 0 0 0 0 1 2 2 2 5 4 6 4 2 1 0 0 0 0 0 0 0 0 1 2 1 3 2 5 74 103 62 46 31 161 202 128 352 383 439 482 401 342 283 308 366 410 374 268 211 178 145 145 138 143 157 321
3 4 2 1 0 1 0 0 0 0 0 0 0 1 2 3 2 5 4 4 1 0 0 0 0 0 0 0 0 0 1 2 3 2 2 4 58 72 26 54 91 144 174 166 294 412 431 494 432 293 321 364 359 337 320 196 131 174 182 165 140 143 234
0 1 2 3 1 4 6 2 1 0 0 0 0 0 0 2 2 2 3 1 1 0 0 0 0 0 0 0 0 0 0 0 13 72 137 93 6 80 209 210 209 220 214 193 276 330 342 304 271 296 220 242 238 248 256 215 205 242 276 211 164 210 230
0 0 0 0 0 1 3 0 0 2 0 0 0 0 0 0 3 3 3 2 1 0 0 1 0 0 0 0 0 0 0 1 2 74 168 182 160 160 39 43 193 205 246 236 241 207 222 241 294 258 187 226 268 242 210 240 277 362 291 273 244 251 206
0 0 0 0 0 0 0 0 0 0 3 1 0 0 0 0 3 3 3 2 1 0 0 0 0 0 0 0 0 0 0 0 0 12 64 124 178 135 122 113 175 259 312 325 304 272 267 231 181 167 157 148 210 207 188 187 212 221 199 264 230 163 161
0 0 0 0 0 0 0 0 0 0 1 12 6 0 0 0 0 2 4 1 1 0 0 0 0 0 0 0 0 0 0 0 0 0 13 58 134 188 167 177 154 181 212 238 252 274 282 286 290 244 226 165 240 223 167 156 247 250 182 214 167 151 92
0 0 0 0 0 0 0 0 0 0 0 1 7 0 0 0 0 0 0 0 0 0 0 0 0 0 0 0 0 0 0 0 0 0 1 24 101 218 260 300 244 213 228 223 205 240 227 228 275 276 218 238 344 315 233 169 231 290 198 84 105 178 189
0 0 0 0 0 0 0 0 0 0 0 0 0 0 0 0 0 0 0 0 0 0 0 0 1 0 0 0 0 0 0 0 0 0 8 9 32 62 160 174 170 150 88 143 144 159 173 186 169 224 261 302 424 336 239 255 232 252 283 242 206 206 201
0 0 0 0 0 0 0 0 0 0 0 0 0 0 0 0 0 0 0 0 0 0 0 0 0 0 0 0 0 0 2 3 5 9 9 7 7 19 63 126 101 86 118 75 89 104 121 130 120 150 182 262 382 429 369 325 210 13 17 160 226 231 166
0 0 0 0 0 0 0 0 0 0 0 0 0 0 0 0 0 0 0 0 0 0 0 0 0 0 0 0 0 0 0 1 6 6 8 5 8 8 32 62 86 130 124 62 55 68 92 104 101 124 174 183 242 288 256 299 318 202 64 0 0 36 178
0 0 0 0 0 0 0 0 0 0 0 0 0 0 0 0 0 0 0 0 0 0 0 0 0 0 0 0 0 0 0 1 3 4 4 3 4 4 14 28 56 93 94 94 70 71 91 105 115 115 134 221 164 214 192 200 233 237 237 132 10 0 124
0 0 0 0 0 0 0 0 0 0 0 0 0 0 0 0 0 0 0 0 0 0 0 0 0 0 0 0 0 0 0 1 0 0 2 7 3 4 6 10 35 58 90 72 85 75 91 129 126 148 207 218 207 180 176 190 218 280 306 320 283 201 233
0 0 0 0 0 0 0 0 0 0 0 0 0 0 0 0 0 0 0 0 0 0 0 0 0 0 0 0 0 0 0 0 0 0 1 1 1 2 2 5 6 20 55 75 68 54 67 86 162 180 187 228 253 226 205 206 207 211 235 280 258 300 302
0 0 0 0 0 0 0 0 0 0 0 0 0 0 0 0 0 0 0 0 0 0 0 0 0 0 0 0 0 0 0 0 0 0 0 0 1 8 10 6 6 16 32 66 75 57 56 74 64 88 123 152 192 252 301 334 306 310 303 270 270 272 244
0 0 0 0 0 0 0 0 0 0 0 0 0 0 0 0 0 0 0 0 0 0 0 0 0 0 0 0 0 0 0 0 1 0 0 0 1 2 2 4 6 8 4 20 64 78 54 58 110 123 123 142 132 169 241 322 402 337 281 267 300 357 358
0 0 0 0 0 0 0 0 0 0 0 0 0 0 0 0 0 0 0 0 0 0 0 0 0 0 0 0 0 0 0 1 1 2 0 0 0 0 2 5 9 9 17 10 24 54 65 50 71 118 130 158 131 106 161 232 262 258 254 254 270 308 369
0 0 0 0 0 0 0 0 0 0 0 0 0 0 0 0 0 0 0 0 0 0 0 0 0 0 0 0 0 0 0 1 1 2 2 1 0 0 1 2 4 4 20 9 14 18 51 54 47 120 183 158 134 71 85 102 171 197 237 289 323 351 358
0 0 0 0 0 0 0 0 0 0 0 0 0 0 0 0 0 0 0 0 0 0 0 0 0 0 0 0 0 0 0 2 2 1 2 3 1 0 1 1 4 0 0 8 5 6 14 37 32 32 88 143 116 129 118 95 129 180 103 199 227 214 218
0 0 0 0 0 0 0 0 0 0 0 0 0 0 0 0 0 0 0 0 0 0 0 0 0 0 0 0 0 0 0 0 1 2 2 2 2 1 1 1 0 0 0 0 0 2 12 9 15 28 56 141 158 139 90 104 96 96 111 38 106 155 91
0 0 0 0 0 0 0 0 0 0 0 0 0 0 0 0 0 0 0 0 0 0 0 0 0 0 0 0 0 0 0 0 0 2 1 2 2 1 1 1 0 0 0 1 9 9 8 12 22 10 50 115 174 152 126 108 84 82 83 91 104 100 68
0 0 0 0 0 0 0 0 0 0 0 0 0 0 0 0 0 0 0 0 0 0 0 0 0 0 0 1 1 0 0 0 0 0 0 1 1 1 0 0 1 0 0 0 0 6 24 35 32 31 25 87 163 144 126 63 69 46 43 49 67 82 97
0 0 0 0 0 0 0 0 0 0 0 0 0 0 0 0 0 0 0 0 0 0 0 0 0 0 0 0 4 5 1 0 0 0 0 0 0 0 0 0 0 0 0 0 0 0 0 2 19 31 16 14 57 77 65 48 46 39 34 29 37 44 68
Wind_Speed
25 24 23 24 24 23 23 21 20 18 14 17 17 17 18 19 20 20 20 21 20 20 22 22 22 21 21 22 24 23 22 24 25 23 20 24 23 22 28 27 25 24 27 26 27 27 nan nan nan 21 19 20 20 20 21 21 19 18 20 21 20 20 20
24 24 24 25 26 25 25 24 24 24 25 19 18 19 19 20 21 20 21 24 23 22 25 24 22 21 21 21 22 23 24 23 25 25 22 21 24 24 29 29 29 25 25 26 26 28 nan nan nan nan 22 22 20 20 22 22 20 19 20 20 20 20 21
24 24 25 26 27 26 25 25 25 26 26 26 26 26 24 25 25 26 26 26 26 25 26 25 22 22 22 22 23 23 23 22 24 27 25 22 24 25 27 28 33 27 26 26 26 26 26 nan nan nan 24 24 20 22 25 23 20 20 20 20 20 20 22
25 25 25 27 26 26 25 25 26 27 27 27 26 26 26 25 25 25 25 26 26 26 25 23 21 21 22 23 23 23 22 23 24 25 25 24 24 26 28 29 30 31 30 28 27 28 27 26 nan nan nan 23 22 23 26 24 22 21 20 22 21 21 22
28 28 27 27 nan 26 25 25 25 27 29 28 27 27 27 26 26 25 25 24 24 24 22 22 22 20 20 22 23 23 23 24 25 26 27 26 26 27 28 28 27 29 28 27 28 29 28 nan 26 nan nan 27 25 24 29 26 23 21 21 22 21 21 23
nan 29 28 nan nan nan nan nan nan nan nan 28 nan nan nan nan nan 26 26 25 24 22 19 20 21 21 21 22 23 23 23 23 25 26 27 29 29 29 29 28 27 28 27 27 28 28 27 28 28 nan nan nan 28 26 25 29 25 24 25 21 20 24 25
nan nan nan nan nan nan nan nan nan nan nan nan nan nan nan nan nan nan 27 26 25 22 20 20 21 22 23 23 23 23 23 24 25 26 27 28 30 30 31 28 27 27 27 27 27 26 27 28 nan nan nan nan 29 27 31 30 30 31 28 22 22 25 26
nan nan nan nan nan nan nan nan nan nan nan nan nan nan nan nan nan nan nan nan nan nan nan nan nan 22 23 23 24 23 24 26 27 27 28 29 31 31 30 29 26 26 26 26 27 25 27 27 27 nan nan nan nan 27 28 31 32 26 28 26 25 26 25
nan nan nan nan nan nan nan nan nan nan nan nan nan nan nan nan nan nan nan nan nan nan nan nan nan nan nan 22 23 24 24 27 27 26 28 29 31 31 30 29 27 24 25 26 26 25 26 28 28 29 28 nan nan nan nan 29 31 26 27 29 28 25 26
nan nan nan nan nan nan nan nan nan nan nan nan nan nan nan nan nan nan nan nan nan nan nan nan nan nan nan nan 23 23 23 26 28 28 30 30 30 31 33 30 27 24 26 27 26 26 28 28 28 28 27 24 nan nan nan nan nan 25 25 26 27 26 25
nan nan nan nan nan nan nan nan nan nan nan nan nan nan nan nan nan nan nan nan nan nan nan nan nan nan nan nan nan nan nan 25 27 30 32 33 32 33 32 30 nan 24 28 30 27 26 26 27 27 25 23 24 25 nan nan nan nan nan 24 25 25 27 25
nan nan nan nan nan nan nan nan nan nan nan nan nan nan nan nan nan nan nan nan nan nan nan nan nan nan nan nan nan nan nan 26 28 30 31 32 33 34 31 27 nan nan nan 29 28 27 26 26 26 26 23 24 nan nan nan nan nan nan 21 19 18 21 21
nan nan nan nan nan nan nan nan nan nan nan nan nan nan nan nan nan nan nan nan nan nan nan nan nan nan nan nan nan nan nan nan 26 28 29 32 33 34 32 27 25 28 30 28 26 27 28 26 26 26 24 24 nan nan 22 nan nan nan nan 17 17 17 18
nan nan nan nan nan nan nan nan nan nan nan nan nan nan nan nan nan nan nan nan nan nan nan nan nan nan nan nan nan nan nan nan nan 27 28 28 31 32 31 26 nan nan 29 27 27 28 28 28 28 27 26 26 24 24 23 nan nan nan nan nan 21 19 19
nan nan nan nan nan nan nan nan nan nan nan nan nan nan nan nan nan nan nan nan nan nan nan nan nan nan nan nan nan nan nan nan nan nan 27 27 30 30 nan 27 24 24 26 26 27 26 28 28 27 27 26 26 25 25 25 24 nan nan 18 nan nan 25 24
nan nan nan nan nan nan nan nan nan nan nan nan nan nan nan nan nan nan nan nan nan nan nan nan nan nan nan nan nan nan nan nan nan nan nan nan 27 nan nan nan 24 26 27 25 26 27 29 29 28 26 26 27 25 26 27 24 24 21 21 22 23 24 23
nan nan nan nan nan nan nan nan nan nan nan nan nan nan nan nan nan nan nan nan nan nan nan nan nan nan nan nan nan nan nan nan nan nan nan nan nan nan nan nan nan 24 27 27 27 27 27 27 28 26 24 23 25 26 28 25 21 22 23 23 23 21 22
nan nan nan nan nan nan nan nan nan nan nan nan nan nan nan nan nan nan nan nan nan nan nan nan nan nan nan nan nan nan nan nan nan nan 23 nan nan nan 28 26 22 24 26 26 27 27 27 26 26 25 23 25 28 29 28 25 22 24 25 22 23 23 24
nan nan nan nan nan nan nan nan nan nan nan nan nan nan nan nan nan nan nan nan nan nan nan nan nan nan nan nan nan nan nan nan nan nan 24 24 23 23 nan nan 23 22 24 24 25 26 27 25 26 25 22 25 30 32 27 24 25 27 25 21 24 25 25
nan nan nan nan nan nan nan nan nan nan nan nan nan nan nan nan nan nan nan nan nan nan nan nan nan nan nan nan nan nan nan nan nan nan nan 25 24 22 24 26 23 22 22 23 24 25 26 25 26 24 25 28 30 31 28 26 26 27 24 24 25 24 23
nan nan nan nan nan nan nan nan nan nan nan nan nan nan nan nan nan nan nan nan nan nan nan nan nan nan nan nan nan nan nan nan nan nan nan nan 25 23 22 23 24 23 22 22 24 24 25 26 26 25 29 30 30 29 29 29 29 28 27 25 26 24 nan
nan nan nan nan nan nan nan nan nan nan nan nan nan nan nan nan nan nan nan nan nan nan nan nan nan nan nan nan nan nan nan nan nan nan nan nan 24 24 23 23 24 25 23 19 20 22 23 23 25 26 28 29 29 31 31 31 30 30 27 nan 26 27 27
nan nan nan nan nan nan nan nan nan nan nan nan nan nan nan nan nan nan nan nan nan nan nan nan nan nan nan nan nan nan nan nan nan nan nan nan nan nan 28 25 24 24 nan 24 22 21 20 19 19 24 29 28 29 30 30 32 29 28 30 29 27 26 28
nan nan nan nan nan nan nan nan nan nan nan nan nan nan nan nan nan nan nan nan nan nan nan nan nan nan nan nan nan nan nan nan nan nan nan nan nan nan nan 29 28 nan 30 nan nan 22 21 21 20 21 22 23 26 28 30 31 29 nan nan 29 27 26 25
nan nan nan nan nan nan nan nan nan nan nan nan nan nan nan nan nan nan nan nan nan nan nan nan nan nan nan nan nan nan nan nan nan nan nan nan nan nan nan nan nan 29 30 nan nan nan nan 27 23 23 24 23 22 24 26 30 31 30 nan nan nan nan 25
nan nan nan nan nan nan nan nan nan nan nan nan nan nan nan nan nan nan nan nan nan nan nan nan nan nan nan nan nan nan nan nan nan nan nan nan nan nan nan nan nan nan nan nan nan nan nan 34 31 27 26 25 23 24 24 25 26 27 29 30 nan nan 26
nan nan nan nan nan nan nan nan nan nan nan nan nan nan nan nan nan nan nan nan nan nan nan nan nan nan nan nan nan nan nan nan nan nan nan nan nan nan nan nan nan nan nan nan nan nan nan 33 34 33 31 30 29 27 24 22 22 22 28 30 30 26 22
nan nan nan nan nan nan nan nan nan nan nan nan nan nan nan nan nan nan nan nan nan nan nan nan nan nan nan nan nan nan nan nan nan nan nan nan nan nan nan nan nan nan nan nan nan nan nan nan 33 32 30 29 29 29 29 28 28 28 30 31 29 25 26
nan nan nan nan nan nan nan nan nan nan nan nan nan nan nan nan nan nan nan nan nan nan nan nan nan nan nan nan nan nan nan nan nan nan nan nan nan nan nan nan nan nan nan nan nan nan nan nan nan nan 31 29 31 30 30 37 38 33 32 30 28 29 31
nan nan nan nan nan nan nan nan nan nan nan nan nan nan nan nan nan nan nan nan nan nan nan nan nan nan nan nan nan nan nan nan nan nan nan nan nan nan nan nan nan nan nan nan nan nan nan nan 34 35 33 33 32 32 30 37 39 40 34 30 29 30 33
nan nan nan nan nan nan nan nan nan nan nan nan nan nan nan nan nan nan nan nan nan nan nan nan nan nan nan nan nan nan nan nan nan nan nan nan nan nan nan nan nan nan nan nan nan nan nan nan nan 37 36 34 33 31 32 36 37 41 43 44 43 42 40
nan nan nan nan nan nan nan nan nan nan nan nan nan nan nan nan nan nan nan nan nan nan nan nan nan nan nan nan nan nan nan nan nan nan nan nan nan nan nan nan nan nan nan nan nan nan nan nan nan 37 36 36 33 nan nan 36 37 39 39 41 41 41 42
nan nan nan nan nan nan nan nan nan nan nan nan nan nan nan nan nan nan nan nan nan nan nan nan nan nan nan nan nan nan nan nan nan nan nan nan nan nan nan nan nan nan nan nan nan nan nan nan nan nan nan 39 36 30 36 nan 39 37 38 39 40 40 40
nan nan nan nan nan nan nan nan nan nan nan nan nan nan nan nan nan nan nan nan nan nan nan nan nan nan nan nan nan nan nan nan nan nan nan nan nan nan nan nan nan nan nan nan nan nan nan nan nan nan nan 38 35 36 nan 38 nan nan 40 nan 41 42 nan
nan nan nan nan nan nan nan nan nan nan nan nan nan nan nan nan nan nan nan nan nan nan nan nan nan nan nan nan nan nan nan nan nan nan nan nan nan nan nan nan nan nan nan nan nan nan nan nan nan nan nan 40 38 32 34 42 nan nan nan nan 41 nan nan
nan nan nan nan nan nan nan nan nan nan nan nan nan nan nan nan nan nan nan nan nan nan nan nan nan nan nan nan nan nan nan nan nan nan nan nan nan nan nan nan nan nan nan nan nan nan nan nan nan nan nan nan 47 41 40 nan nan nan nan nan nan nan nan
nan nan nan nan nan nan nan nan nan nan nan nan nan nan nan nan nan nan nan nan nan nan nan nan nan nan nan nan nan nan nan nan nan nan nan nan nan nan nan nan nan nan nan nan nan nan nan nan nan nan nan nan nan nan nan nan nan nan nan nan nan nan nan
Wind_Direction
293 296 299 297 296 296 293 295 298 297 290 289 290 289 287 286 285 288 294 297 300 305 306 309 311 314 314 316 319 323 320 316 315 314 313 306 306 295 291 289 293 292 287 280 274 277 nan nan nan 276 277 270 253 243 252 262 261 258 258 255 256 259 258
293 296 299 296 292 292 290 290 288 289 296 299 289 283 284 287 289 299 305 303 309 310 307 308 313 318 321 321 319 318 317 314 313 313 314 312 307 303 292 291 290 293 288 289 285 276 nan nan nan nan 279 272 256 246 252 257 251 249 255 255 255 258 260
285 289 293 289 289 289 289 290 291 290 286 288 293 295 296 296 299 304 310 311 312 311 309 312 316 319 319 317 317 317 317 319 317 318 323 319 313 307 302 295 292 287 284 283 282 278 270 nan nan nan 277 282 267 251 251 251 251 248 250 254 256 257 259
277 280 281 282 284 285 286 288 289 290 289 288 288 287 287 286 287 291 298 305 306 307 308 309 315 318 317 316 315 314 317 321 320 323 325 326 319 311 307 301 295 290 289 287 282 277 276 274 nan nan nan 275 277 265 255 249 246 251 255 257 258 257 259
279 280 280 282 nan 286 288 287 289 288 288 290 289 288 285 281 283 286 289 290 293 297 300 305 308 310 312 314 314 316 318 320 320 320 322 322 320 312 308 302 297 290 286 282 278 277 278 nan 276 nan nan 266 260 258 251 248 244 250 256 261 260 258 259
nan 282 285 nan nan nan nan nan nan nan nan 286 nan nan nan nan nan 282 282 283 284 288 290 295 304 307 311 313 315 316 316 317 316 318 319 320 321 315 308 302 295 289 286 280 277 275 273 271 271 nan nan nan 264 261 258 254 251 254 254 254 254 259 259
nan nan nan nan nan nan nan nan nan nan nan nan nan nan nan nan nan nan 283 283 283 283 285 290 298 305 309 312 314 315 317 317 316 321 322 322 319 317 307 298 291 285 280 278 277 274 271 270 nan nan nan nan 260 259 255 257 253 252 248 252 251 254 255
nan nan nan nan nan nan nan nan nan nan nan nan nan nan nan nan nan nan nan nan nan nan nan nan nan 299 305 308 310 313 314 313 315 317 317 315 315 315 311 300 289 283 279 274 272 271 268 269 268 nan nan nan nan 260 259 255 252 255 251 248 249 252 250
nan nan nan nan nan nan nan nan nan nan nan nan nan nan nan nan nan nan nan nan nan nan nan nan nan nan nan 302 304 306 309 307 311 316 317 320 321 322 315 302 293 287 279 272 270 268 266 266 265 262 263 nan nan nan nan 255 252 248 248 245 244 248 244
nan nan nan nan nan nan nan nan nan nan nan nan nan nan nan nan nan nan nan nan nan nan nan nan nan nan nan nan 301 302 303 304 308 314 315 318 321 320 312 306 290 281 276 270 264 258 255 256 258 258 258 261 nan nan nan nan nan 246 243 248 243 239 239
nan nan nan nan nan nan nan nan nan nan nan nan nan nan nan nan nan nan nan nan nan nan nan nan nan nan nan nan nan nan nan 303 308 311 313 317 322 320 314 303 nan 281 272 268 264 259 251 252 252 254 254 253 255 nan nan nan nan nan 240 237 231 230 232
nan nan nan nan nan nan nan nan nan nan nan nan nan nan nan nan nan nan nan nan nan nan nan nan nan nan nan nan nan nan nan 301 305 311 314 316 320 322 319 308 nan nan nan 269 265 260 253 246 247 251 249 254 nan nan nan nan nan nan 245 240 228 226 233
nan nan nan nan nan nan nan nan nan nan nan nan nan nan nan nan nan nan nan nan nan nan nan nan nan nan nan nan nan nan nan nan 300 308 313 315 318 319 316 307 292 277 270 269 267 262 256 251 247 249 251 255 nan nan 259 nan nan nan nan 242 238 232 239
nan nan nan nan nan nan nan nan nan nan nan nan nan nan nan nan nan nan nan nan nan nan nan nan nan nan nan nan nan nan nan nan nan 302 308 313 318 322 318 306 nan nan 271 268 266 261 257 253 248 247 249 251 253 255 255 nan nan nan nan nan 238 240 241
nan nan nan nan nan nan nan nan nan nan nan nan nan nan nan nan nan nan nan nan nan nan nan nan nan nan nan nan nan nan nan nan nan nan 305 308 311 316 nan 304 291 282 275 267 263 263 259 252 246 242 245 249 247 248 249 248 nan nan 231 nan nan 234 238
nan nan nan nan nan nan nan nan nan nan nan nan nan nan nan nan nan nan nan nan nan nan nan nan nan nan nan nan nan nan nan nan nan nan nan nan 311 nan nan nan 284 279 277 270 261 256 251 245 243 243 243 244 245 247 248 247 241 239 239 236 240 243 242
nan nan nan nan nan nan nan nan nan nan nan nan nan nan nan nan nan nan nan nan nan nan nan nan nan nan nan nan nan nan nan nan nan nan nan nan nan nan nan nan nan 280 277 272 265 261 258 250 241 235 234 238 243 246 245 244 246 244 241 237 237 242 242
nan nan nan nan nan nan nan nan nan nan nan nan nan nan nan nan nan nan nan nan nan nan nan nan nan nan nan nan nan nan nan nan nan nan 295 nan nan nan 316 309 289 279 277 268 262 260 257 252 242 235 230 233 239 242 241 243 246 244 237 231 232 233 239
nan nan nan nan nan nan nan nan nan nan nan nan nan nan nan nan nan nan nan nan nan nan nan nan nan nan nan nan nan nan nan nan nan nan 298 299 303 309 nan nan 292 279 276 270 263 261 259 254 243 235 229 233 239 242 243 243 241 241 240 234 235 233 236
nan nan nan nan nan nan nan nan nan nan nan nan nan nan nan nan nan nan nan nan nan nan nan nan nan nan nan nan nan nan nan nan nan nan nan 301 301 300 308 310 295 278 273 270 264 262 259 252 248 242 232 232 239 242 244 242 239 237 236 234 233 238 242
nan nan nan nan nan nan nan nan nan nan nan nan nan nan nan nan nan nan nan nan nan nan nan nan nan nan nan nan nan nan nan nan nan nan nan nan 293 296 300 300 292 280 274 271 267 261 255 247 244 238 234 235 239 242 240 239 240 239 235 233 235 239 nan
nan nan nan nan nan nan nan nan nan nan nan nan nan nan nan nan nan nan nan nan nan nan nan nan nan nan nan nan nan nan nan nan nan nan nan nan 282 284 291 293 286 275 264 256 260 261 256 251 244 238 238 239 240 242 240 238 238 239 236 nan 237 236 241
nan nan nan nan nan nan nan nan nan nan nan nan nan nan nan nan nan nan nan nan nan nan nan nan nan nan nan nan nan nan nan nan nan nan nan nan nan nan 265 268 273 253 nan 244 237 237 243 250 245 240 240 241 240 240 241 240 239 237 235 234 236 238 237
nan nan nan nan nan nan nan nan nan nan nan nan nan nan nan nan nan nan nan nan nan nan nan nan nan nan nan nan nan nan nan nan nan nan nan nan nan nan nan 268 267 nan 245 nan nan 231 234 236 234 232 237 242 242 242 241 243 239 nan nan 232 232 235 237
nan nan nan nan nan nan nan nan nan nan nan nan nan nan nan nan nan nan nan nan nan nan nan nan nan nan nan nan nan nan nan nan nan nan nan nan nan nan nan nan nan 270 262 nan nan nan nan 226 233 229 226 234 236 242 244 247 246 241 nan nan nan nan 234
nan nan nan nan nan nan nan nan nan nan nan nan nan nan nan nan nan nan nan nan nan nan nan nan nan nan nan nan nan nan nan nan nan nan nan nan nan nan nan nan nan nan nan nan nan nan nan 229 226 229 225 224 228 229 228 235 244 246 244 243 nan nan 231
nan nan nan nan nan nan nan nan nan nan nan nan nan nan nan nan nan nan nan nan nan nan nan nan nan nan nan nan nan nan nan nan nan nan nan nan nan nan nan nan nan nan nan nan nan nan nan 235 229 228 228 228 228 231 230 229 238 243 247 247 246 241 236
nan nan nan nan nan nan nan nan nan nan nan nan nan nan nan nan nan nan nan nan nan nan nan nan nan nan nan nan nan nan nan nan nan nan nan nan nan nan nan nan nan nan nan nan nan nan nan nan 229 224 224 227 232 231 232 232 234 238 243 244 245 245 239
nan nan nan nan nan nan nan nan nan nan nan nan nan nan nan nan nan nan nan nan nan nan nan nan nan nan nan nan nan nan nan nan nan nan nan nan nan nan nan nan nan nan nan nan nan nan nan nan nan nan 223 227 232 233 230 231 229 228 232 236 237 237 237
nan nan nan nan nan nan nan nan nan nan nan nan nan nan nan nan nan nan nan nan nan nan nan nan nan nan nan nan nan nan nan nan nan nan nan nan nan nan nan nan nan nan nan nan nan nan nan nan 230 228 226 226 232 238 233 233 230 230 231 230 226 238 246
nan nan nan nan nan nan nan nan nan nan nan nan nan nan nan nan nan nan nan nan nan nan nan nan nan nan nan nan nan nan nan nan nan nan nan nan nan nan nan nan nan nan nan nan nan nan nan nan nan 230 226 225 230 234 238 236 233 233 234 236 240 245 247
nan nan nan nan nan nan nan nan nan nan nan nan nan nan nan nan nan nan nan nan nan nan nan nan nan nan nan nan nan nan nan nan nan nan nan nan nan nan nan nan nan nan nan nan nan nan nan nan nan 234 231 227 230 nan nan 243 239 237 239 241 240 242 241
nan nan nan nan nan nan nan nan nan nan nan nan nan nan nan nan nan nan nan nan nan nan nan nan nan nan nan nan nan nan nan nan nan nan nan nan nan nan nan nan nan nan nan nan nan nan nan nan nan nan nan 233 230 231 236 nan 239 242 241 241 240 237 238
nan nan nan nan nan nan nan nan nan nan nan nan nan nan nan nan nan nan nan nan nan nan nan nan nan nan nan nan nan nan nan nan nan nan nan nan nan nan nan nan nan nan nan nan nan nan nan nan nan nan nan 233 236 229 nan 242 nan nan 240 nan 237 233 nan
nan nan nan nan nan nan nan nan nan nan nan nan nan nan nan nan nan nan nan nan nan nan nan nan nan nan nan nan nan nan nan nan nan nan nan nan nan nan nan nan nan nan nan nan nan nan nan nan nan nan nan 225 224 235 243 243 nan nan nan nan 239 nan nan
nan nan nan nan nan nan nan nan nan nan nan nan nan nan nan nan nan nan nan nan nan nan nan nan nan nan nan nan nan nan nan nan nan nan nan nan nan nan nan nan nan nan nan nan nan nan nan nan nan nan nan nan 223 231 243 nan nan nan nan nan nan nan nan
nan nan nan nan nan nan nan nan nan nan nan nan nan nan nan nan nan nan nan nan nan nan nan nan nan nan nan nan nan nan nan nan nan nan nan nan nan nan nan nan nan nan nan nan nan nan nan nan nan nan nan nan nan nan nan nan nan nan nan nan nan nan nan